Alturas, CA

12:02 AM PST on December 18, 2017 (GMT -0800)
Alturas Municipal

Weather History for KAAT - August, 2013

Change the Weather History Date:

Sunday, August 4, 2013

  Actual Average Record
Temperature  
Mean Temperature 65 °F 67 °F  
Max Temperature 90 °F 89 °F 106 °F (1961)
Min Temperature 39 °F 45 °F 33 °F (1963)
Degree Days  
Heating Degree Days 0 1  
Month to date heating degree days 11 4  
Since 1 June heating degree days 171 225  
Since 1 July heating degree days 15 45  
Cooling Degree Days 0 3  
Month to date cooling degree days 0 12  
Year to date cooling degree days 216 107  
Since 1 June cooling degree days 216 107  
Growing Degree Days 14 (Base 50)    
Moisture  
Dew Point 31 °F    
Average Humidity 38    
Maximum Humidity 64    
Minimum Humidity 11    
Precipitation  
Precipitation 0.00 in 0.01 in 0.08 in (2014)
Month to date precipitation 0.00 0.04  
Year to date precipitation 4.43 8.82  
Sea Level Pressure  
Sea Level Pressure 29.97 in    
Wind  
Wind Speed 5 mph (West)    
Max Wind Speed 18 mph    
Max Gust Speed 24 mph    
Visibility 10 miles    
Events      
T = Trace of Precipitation, MM = Missing Value Source: NWS Daily Summary

Daily Weather History Graph

Daily Weather History Graph

Search for Another Location

Airport or City:

Trip Planner

Search our weather history database for the weather conditions in past years. The results will help you decide how hot, cold, wet, or windy it might be!

Date:

Astronomy

Aug. 04, 2013 Rise Set
Actual Time 6:00 AM PDT 8:15 PM PDT
Civil Twilight 5:29 AM PDT 8:46 PM PDT
Nautical Twilight 4:51 AM PDT 9:24 PM PDT
Astronomical Twilight 4:09 AM PDT 10:06 PM PDT
Moon 4:05 AM PDT (8/4) 6:42 PM PDT (8/4)
Length of Visible Light 15h 16m
Length of Day
14h 15m
Waning Crescent, 4% of the Moon is Illuminated
Aug 4
Waning Crescent
Aug 6
New
Aug 14
First Quarter
Aug 20
Full
Aug 28
Last Quarter

Hourly Weather History & Observations

Time (PDT) Temp. Dew Point Humidity Pressure Visibility Wind Dir Wind Speed Gust Speed Precip Events Conditions
12:55 AM 51.1 °F 30.0 °F 44% 29.99 in 10.0 mi Calm Calm - N/A   Clear
1:55 AM 52.0 °F 32.0 °F 47% 29.98 in 10.0 mi Calm Calm - N/A   Clear
2:55 AM 50.0 °F 32.0 °F 50% 29.99 in 10.0 mi Calm Calm - N/A   Clear
3:55 AM 45.0 °F 30.0 °F 56% 30.00 in 10.0 mi Calm Calm - N/A   Clear
4:55 AM 43.0 °F 28.9 °F 58% 30.01 in 10.0 mi Calm Calm - N/A   Clear
5:55 AM 39.9 °F 28.0 °F 63% 30.03 in 10.0 mi Calm Calm - N/A   Clear
6:55 AM 46.0 °F 30.9 °F 56% 30.03 in 10.0 mi Calm Calm - N/A   Clear
7:55 AM 55.9 °F 33.1 °F 42% 30.02 in 10.0 mi Calm Calm - N/A   Clear
8:55 AM 63.0 °F 34.0 °F 34% 30.03 in 10.0 mi Calm Calm - N/A   Clear
9:55 AM 71.1 °F 35.1 °F 27% 29.99 in 10.0 mi Variable 3.5 mph - N/A   Clear
10:55 AM 75.9 °F 35.1 °F 23% 29.99 in 10.0 mi South 4.6 mph - N/A   Clear
11:55 AM 82.0 °F 32.0 °F 16% 29.96 in 10.0 mi North 4.6 mph - N/A   Clear
12:55 PM 84.0 °F 30.9 °F 15% 29.96 in 10.0 mi Variable 3.5 mph - N/A   Clear
1:55 PM 86.0 °F 32.0 °F 14% 29.94 in 10.0 mi NW 5.8 mph - N/A   Clear
2:55 PM 88.0 °F 30.9 °F 13% 29.92 in 10.0 mi West 11.5 mph 17.3 mph N/A   Clear
3:55 PM 89.1 °F 30.0 °F 12% 29.91 in 10.0 mi WNW 9.2 mph 18.4 mph N/A   Clear
4:55 PM 89.1 °F 28.0 °F 11% 29.90 in 10.0 mi West 13.8 mph 20.7 mph N/A   Clear
5:55 PM 88.0 °F 27.0 °F 11% 29.91 in 10.0 mi West 13.8 mph - N/A   Clear
6:55 PM 84.9 °F 30.0 °F 14% 29.91 in 10.0 mi WSW 15.0 mph - N/A   Clear
7:55 PM 79.0 °F 32.0 °F 18% 29.92 in 10.0 mi West 16.1 mph - N/A   Clear
8:55 PM 73.0 °F 30.0 °F 20% 29.95 in 10.0 mi West 8.1 mph - N/A   Clear
9:55 PM 66.0 °F 28.0 °F 24% 29.97 in 10.0 mi West 3.5 mph - N/A   Clear
10:55 PM 62.1 °F 32.0 °F 32% 29.99 in 10.0 mi East 4.6 mph - N/A   Clear
11:55 PM 57.9 °F 33.1 °F 39% 29.99 in 10.0 mi Calm Calm - N/A   Clear